Tiempo cada hora Alimbay

Hoy, 31 Julio, Sábado

Tiempo Temperatura Precipitaciones Viento Presión Humedad
00:00 +26°C° 0 mm 4 mps 736 mmHg 34%
01:00 +25°C° 0 mm 4 mps 736 mmHg 33%
02:00 +25°C° 0 mm 4 mps 736 mmHg 35%
03:00 +23°C° 0 mm 4 mps 736 mmHg 36%
04:00 +23°C° 0 mm 4 mps 736 mmHg 38%
05:00 +25°C° 0 mm 3 mps 736 mmHg 38%
06:00 +26°C° 0 mm 3 mps 736 mmHg 38%
07:00 +27°C° 0 mm 3 mps 736 mmHg 37%
08:00 +29°C° 0 mm 3 mps 737 mmHg 35%
09:00 +31°C° 0 mm 3 mps 737 mmHg 33%
10:00 +34°C° 0 mm 3 mps 737 mmHg 32%
11:00 +34°C° 0 mm 4 mps 737 mmHg 29%
12:00 +35°C° 0 mm 5 mps 737 mmHg 27%
13:00 +35°C° 0 mm 5 mps 737 mmHg 25%
14:00 +36°C° 0 mm 6 mps 737 mmHg 24%
15:00 +38°C° 0 mm 7 mps 737 mmHg 22%
16:00 +38°C° 0 mm 8 mps 736 mmHg 21%
17:00 +36°C° 0 mm 7 mps 736 mmHg 23%
18:00 +34°C° 0 mm 5 mps 737 mmHg 26%
19:00 +33°C° 0 mm 4 mps 737 mmHg 28%
20:00 +32°C° 0 mm 4 mps 737 mmHg 30%
21:00 +30°C° 0 mm 3 mps 737 mmHg 32%
22:00 +29°C° 0 mm 3 mps 737 mmHg 34%
23:00 +28°C° 0 mm 3 mps 737 mmHg 34%

Mañana, 1 Agosto, Domingo

Tiempo Temperatura Precipitaciones Viento Presión Humedad
00:00 +27°C° 0 mm 3 mps 737 mmHg 35%
01:00 +27°C° 0 mm 3 mps 737 mmHg 36%
02:00 +26°C° 0 mm 3 mps 737 mmHg 36%
03:00 +26°C° 0 mm 3 mps 737 mmHg 37%
04:00 +25°C° 0 mm 2 mps 737 mmHg 37%
05:00 +27°C° 0 mm 3 mps 737 mmHg 35%
06:00 +28°C° 0 mm 3 mps 738 mmHg 33%
07:00 +29°C° 0 mm 3 mps 738 mmHg 31%
08:00 +31°C° 0 mm 3 mps 738 mmHg 28%
09:00 +34°C° 0 mm 3 mps 738 mmHg 26%
10:00 +36°C° 0 mm 3 mps 738 mmHg 23%
11:00 +37°C° 0 mm 3 mps 738 mmHg 22%
12:00 +37°C° 0 mm 4 mps 738 mmHg 20%
13:00 +39°C° 0 mm 5 mps 737 mmHg 19%
14:00 +39°C° 0 mm 5 mps 737 mmHg 19%
15:00 +39°C° 0 mm 6 mps 737 mmHg 20%
16:00 +39°C° 0 mm 6 mps 737 mmHg 21%
17:00 +36°C° 0 mm 5 mps 737 mmHg 24%
18:00 +35°C° 0 mm 5 mps 737 mmHg 27%
19:00 +34°C° 0 mm 4 mps 737 mmHg 30%
20:00 +32°C° 0 mm 4 mps 737 mmHg 33%
21:00 +30°C° 0 mm 3 mps 737 mmHg 36%
22:00 +29°C° 0 mm 3 mps 737 mmHg 38%
23:00 +28°C° 0 mm 3 mps 738 mmHg 43%

Pasado mañana, 2 Agosto, Lunes

Tiempo Temperatura Precipitaciones Viento Presión Humedad
00:00 +27°C° 0 mm 4 mps 738 mmHg 48%
01:00 +26°C° 0 mm 4 mps 738 mmHg 53%
02:00 +25°C° 0 mm 3 mps 738 mmHg 55%
03:00 +25°C° 0 mm 3 mps 738 mmHg 57%
04:00 +24°C° 0 mm 2 mps 739 mmHg 59%
05:00 +25°C° 0 mm 2 mps 739 mmHg 54%
06:00 +27°C° 0 mm 2 mps 739 mmHg 50%
07:00 +28°C° 0 mm 2 mps 740 mmHg 45%
08:00 +30°C° 0 mm 2 mps 740 mmHg 38%
09:00 +31°C° 0 mm 1 mps 740 mmHg 32%
10:00 +33°C° 0 mm 1 mps 740 mmHg 25%
11:00 +34°C° 0 mm 1 mps 739 mmHg 23%
12:00 +36°C° 0 mm 2 mps 739 mmHg 22%
13:00 +36°C° 0 mm 2 mps 739 mmHg 20%
14:00 +36°C° 0 mm 2 mps 739 mmHg 20%
15:00 +37°C° 0 mm 3 mps 739 mmHg 20%
16:00 +37°C° 0 mm 3 mps 739 mmHg 20%
17:00 +36°C° 0 mm 3 mps 738 mmHg 23%
18:00 +35°C° 0 mm 2 mps 738 mmHg 26%
19:00 +34°C° 0 mm 2 mps 738 mmHg 28%
20:00 +32°C° 0 mm 2 mps 738 mmHg 29%
21:00 +31°C° 0 mm 3 mps 738 mmHg 30%
22:00 +30°C° 0 mm 3 mps 738 mmHg 31%
23:00 +29°C° 0 mm 2 mps 738 mmHg 32%

3 Agosto, Martes

Tiempo Temperatura Precipitaciones Viento Presión Humedad
00:00 +29°C° 0 mm 2 mps 739 mmHg 33%
01:00 +28°C° 0 mm 2 mps 739 mmHg 34%
02:00 +28°C° 0 mm 3 mps 739 mmHg 35%
03:00 +27°C° 0 mm 3 mps 739 mmHg 37%
04:00 +26°C° 0 mm 3 mps 739 mmHg 38%
05:00 +27°C° 0 mm 3 mps 739 mmHg 37%
06:00 +28°C° 0 mm 2 mps 739 mmHg 35%
07:00 +29°C° 0 mm 2 mps 739 mmHg 34%
08:00 +31°C° 0 mm 2 mps 739 mmHg 30%
09:00 +34°C° 0 mm 2 mps 739 mmHg 27%
10:00 +35°C° 0 mm 2 mps 739 mmHg 23%
11:00 +36°C° 0 mm 3 mps 739 mmHg 21%
12:00 +37°C° 0 mm 4 mps 739 mmHg 19%
13:00 +39°C° 0 mm 5 mps 739 mmHg 17%
14:00 +39°C° 0 mm 5 mps 739 mmHg 18%
15:00 +39°C° 0 mm 5 mps 739 mmHg 18%
16:00 +39°C° 0 mm 5 mps 738 mmHg 18%
17:00 +37°C° 0 mm 4 mps 738 mmHg 20%
18:00 +36°C° 0 mm 3 mps 738 mmHg 22%
19:00 +34°C° 0 mm 3 mps 738 mmHg 24%
20:00 +33°C° 0 mm 3 mps 738 mmHg 25%
21:00 +31°C° 0 mm 3 mps 738 mmHg 26%
22:00 +30°C° 0 mm 3 mps 739 mmHg 27%
23:00 +30°C° 0 mm 3 mps 738 mmHg 29%

4 Agosto, Miércoles

Tiempo Temperatura Precipitaciones Viento Presión Humedad
00:00 +29°C° 0 mm 3 mps 738 mmHg 30%
01:00 +29°C° 0 mm 3 mps 738 mmHg 32%
02:00 +28°C° 0 mm 3 mps 739 mmHg 34%
03:00 +27°C° 0 mm 2 mps 739 mmHg 36%
04:00 +26°C° 0 mm 2 mps 739 mmHg 38%
05:00 +28°C° 0 mm 2 mps 739 mmHg 35%
06:00 +29°C° 0 mm 2 mps 739 mmHg 33%
07:00 +30°C° 0 mm 2 mps 739 mmHg 30%
08:00 +33°C° 0 mm 3 mps 739 mmHg 27%
09:00 +35°C° 0 mm 3 mps 739 mmHg 24%
10:00 +37°C° 0 mm 4 mps 739 mmHg 20%
11:00 +38°C° 0 mm 3 mps 739 mmHg 19%
12:00 +39°C° 0 mm 2 mps 739 mmHg 18%
13:00 +39°C° 0 mm 2 mps 738 mmHg 17%
14:00 +39°C° 0 mm 2 mps 738 mmHg 17%
15:00 +39°C° 0 mm 2 mps 738 mmHg 16%
16:00 +40°C° 0 mm 2 mps 737 mmHg 16%
17:00 +38°C° 0 mm 2 mps 737 mmHg 19%
18:00 +37°C° 0 mm 3 mps 737 mmHg 21%
19:00 +35°C° 0 mm 3 mps 737 mmHg 24%
20:00 +33°C° 0.1 mm 3 mps 737 mmHg 28%
21:00 +32°C° 0.1 mm 4 mps 737 mmHg 32%
22:00 +29°C° 0.1 mm 4 mps 737 mmHg 37%
23:00 +29°C° 0 mm 4 mps 737 mmHg 37%

5 Agosto, Jueves

Tiempo Temperatura Precipitaciones Viento Presión Humedad
00:00 +28°C° 0 mm 4 mps 737 mmHg 37%
01:00 +28°C° 0 mm 4 mps 737 mmHg 37%
02:00 +27°C° 0 mm 4 mps 737 mmHg 37%
03:00 +27°C° 0 mm 4 mps 736 mmHg 38%
04:00 +26°C° 0 mm 4 mps 736 mmHg 38%
05:00 +27°C° 0 mm 4 mps 736 mmHg 35%
06:00 +29°C° 0 mm 4 mps 736 mmHg 32%
07:00 +30°C° 0 mm 4 mps 736 mmHg 29%
08:00 +33°C° 0 mm 4 mps 736 mmHg 25%
09:00 +36°C° 0 mm 3 mps 736 mmHg 22%
10:00 +38°C° 0 mm 3 mps 736 mmHg 19%
11:00 +39°C° 0 mm 3 mps 736 mmHg 17%
12:00 +41°C° 0 mm 4 mps 735 mmHg 16%
13:00 +42°C° 0 mm 4 mps 735 mmHg 14%
14:00 +42°C° 0 mm 3 mps 734 mmHg 13%
15:00 +41°C° 0 mm 2 mps 734 mmHg 13%
16:00 +41°C° 0 mm 2 mps 733 mmHg 12%
17:00 +40°C° 0 mm 2 mps 733 mmHg 14%
18:00 +38°C° 0 mm 3 mps 733 mmHg 16%
19:00 +37°C° 0 mm 4 mps 733 mmHg 18%
20:00 +36°C° 0 mm 4 mps 733 mmHg 20%
21:00 +34°C° 0 mm 4 mps 733 mmHg 22%
22:00 +33°C° 0 mm 4 mps 732 mmHg 24%
23:00 +31°C° 0 mm 3 mps 732 mmHg 25%
Mostrar más

Necesitamos Su Consentimiento

Meteoprog y nuestros Proveedores de Servicios pueden almacenar y acceder a sus datos personales como cookies, identificadores de dispositivo u otras tecnologías similares de su dispositivo y procesar dichos datos para personalizar contenido y anuncios, además de ofrecer funciones de redes sociales y analizar el tráfico.

  • Almacenar y/o acceder a información en su dispositivo

    Se puede almacenar o acceder a cookies, identificadores de dispositivo u otra información de su dispositivo para los fines anteriormente indicados.

  • Anuncios y contenido personalizados, medición de anuncios y contenido, percepciones del público, y desarrollo de productos

    Los anuncios y el contenido pueden personalizarse en base a su perfil. Se pueden añadir más datos para personalizar mejor los anuncios y contenidos. Se puede medir el rendimiento de los anuncios y contenidos. Se puede obtener la percepción sobre el público que ha visto los anuncios y contenidos. Dichos datos pueden usarse para desarrollar o mejorar la experiencia del usuario, sistemas y software.

Al hacer clic en ‘Estoy De Acuerdo’ usted permitirá el uso de las cookies, identificadores de dispositivo, balizas web u otras tecnologías similares indicadas. Su configuración puede cambiarse desde el navegador de su dispositivo.

Para ciertos fines, los intereses legítimos pueden ser considerados por encima del consentimiento. Puede leer más sobre ello en nuestra Política de Privacidad y Cookies.